{"data":{"norad_id":60422,"intl_designator":"2024-143A","name":"ASBM-1","alt_names":[],"object_type":"PAYLOAD","status":"ACTIVE","operator":null,"country":"NOR","launch_date":"2024-08-12","launch_site_code":"AFWTR","launch_vehicle":null,"mission":null,"orbit_class":"UNKNOWN","rcs_meters":null,"size_class":null,"mass_kg":null,"dimensions":null,"purposes":[],"wikipedia_slug":null,"has_3d_model":false,"image_url":null,"decayed_at":null,"tle_current":{"epoch":"2026-05-21T21:44:59.911008Z","epoch_age_seconds":352430,"freshness":"STALE","line1":"1 60422U 24143A   26141.90624897 -.00000061  00000+0  00000+0 0  9993","line2":"2 60422  62.8377  46.5123 5599565 269.2591  29.7969  1.50427793 11224","mean_motion":1.50427793,"eccentricity":0.5599565,"inclination_deg":62.8377,"raan_deg":46.5123,"arg_perigee_deg":269.2591,"mean_anomaly_deg":29.7969,"bstar":0,"rev_number":1122,"period_min":957.26991088675,"perigee_km":7780.1940380408,"apogee_km":43813.220290685,"semimajor_km":32174.844164363,"source":"CELESTRAK","updated_at":"2026-05-25T13:38:02.052016Z"}}}